Location: Stanford
(52.2833°N, 2.4333°W)
Time: 01:59:41
(UTC+00:00)

ATLAS 2AS CENTAUR R/B - Pass Details

Date: 22 January 2021
Orbit: 947 x 1265 km, 63.7° (Epoch: 13 February)

Event Time Altitude Azimuth Distance (km) Brightness Sun altitude
Rises 20:23:25 0° 291° (WNW) 4,214 6.9 -33.8°
Reaches altitude 10° 20:26:36 10° 300° (WNW) 3,226 5.9 -34.3°
Enters shadow 20:33:39 35° 4° (N) 1,837 3.9 -35.3°
